sat.trackr.live / text

‹ back to catalog

ONEWEB-0549

NORAD 56051 · 2023-043F

PAYLOAD ACTIVE UNKNOWN

§ Identity

Operator
Country
UK
Launch date
2023-03-26
Launch site
SRILR
Launch vehicle
Mass (kg)
RCS (m²)

Purposes: comms

External: N2YO · Heavens-Above · Gunter

§ Orbital elements

Epoch: 2026-09-20T03:58:21.472320Z

Period
108.94 min
Inclination
87.9280°
Eccentricity
0.0001734
Mean motion
13.21827807 rev/d
Perigee alt
1,176.4 km
Apogee alt
1,179.1 km
Semi-major
7,555.9 km
B*
1.5667e-4
RAAN
225.0731°
Arg perigee
75.2185°
Mean anomaly
284.9141°
Rev number
17,077

§ Raw data

ONEWEB-05491 56051U 23043F   26263.16552630  .00000078  00000+0  15667-3 0  99982 56051  87.9280 225.0731 0001734  75.2185 284.9141 13.21827807170776

JSON: /api/v1/satellites/56051 · /tle

For live sub-satellite position, see the globe view (requires WebGL).

§ Visibility from observer

Set your observer location to see the next 7 days of passes ≥ 10°. The values pass through the URL so the page stays shareable.

No JS? Fill the form by hand. The geolocation button needs JavaScript.